www.pogodaiklimat.ru

Погода и климат >> Архив погоды >> Корея >> Тондучхон


ПОГОДА в Тондучхоне

  • Прогноз погоды в Тондучхоне
  • Монитор погоды в Тондучхоне

АРХИВ ПОГОДЫ в Тондучхоне

Время (UTC), дата Ветер
(напр.,м/с)
 
Видим.   Явления Облачность Т
(С)
Тd
(С)
f
(%)
Тe
(С)
Тes
(С)
Комфортность P
(гПа)
Po
(гПа)
Тmin
(С)
Tmax
(С)
R
(мм)
R24
(мм)
S
(см)
09 15.08 С 2 3500 м 10/10 300 м
[]
+22.8 +22.6 99 +31 +31 очень
душно
991.8 978.9
12 15.08 С 3 18 км 9/9 300 м
[]
+22.2 +22.0 99 +29 +29 очень
душно
992.1 979.1 +28.5 27
15 15.08 С 1 24 км 5/3 1000 м
[]
+21.7 +21.5 99 +28 +28 душно 992.2 979.2
18 15.08 штиль 0 6000 м 3/0
[]
+21.5 +21.4 99 +27 +27 душно 992.5 979.5
21 15.08 14 км н/о +21.5 +21.3 99 +27 +27 душно 993.6 980.5
00 16.08 40 км 4/4 300 м
[]
+23.7 +22.3 92 +31 +37 очень
душно
994.4 981.5 +21.2 0.0
03 16.08 Ю 1 17 км 9// 300 м
[]
+26.2 +25.3 95 +38 +50 очень
душно
994.4 981.5
06 16.08 З 4 26 км 5/5 600 м
[]
+28.1 +24.1 79 +39 +43 очень
душно
994.3 981.5 0.9
09 16.08 З 5 23 км 3/0
[]
+27.7 +23.7 79 +38 +39 очень
душно
995.7 982.9
12 16.08 ЮЗ 4 9000 м 4/0
[]
+24.6 +23.2 92 +33 +33 очень
душно
998.0 985.1 +29.3 0.9
15 16.08 ЮЗ 2 7000 м 3/1 300 м
[]
+23.5 +22.1 92 +30 +30 очень
душно
999.6 986.6
18 16.08 Ю 2 9000 м 6/6 300 м
[]
+23.7 +22.3 92 +31 +31 очень
душно
999.9 986.9
21 16.08 10 км н/о +23.2 +21.8 92 +31 +31 очень
душно
1000.3 987.3
00 17.08 ЮЗ 5 23 км 8/8 1000 м
[]
+24.7 +19.9 75 +30 +31 очень
душно
1001.3 988.4 +22.8 0.0
03 17.08 18 км н/о +26.4 +22.0 77 +34 +37 очень
душно
1001.0 988.1
06 17.08 З 4 22 км 5/5 600 м
[]
+28.2 +21.7 68 +36 +40 очень
душно
1000.1 987.3
09 17.08 З 4 27 км ясно +27.1 +19.9 65 +33 +34 очень
душно
1000.4 987.5
12 17.08 ЮЗ 1 15 км ясно +23.1 +19.6 81 +30 +30 очень
душно
1003.2 990.1
15 17.08 ЮЗ 2 18 км 8/8 600 м
[]
+22.0 +20.2 90 +28 +28 душно 1004.6 991.4
18 17.08 штиль 0 12 км ясно +20.2 +19.3 95 +24 +24 комфорт 1005.3 992.0
21 17.08 9000 м н/о +19.3 +18.8 97 +23 +23 комфорт 1006.3 993.0
00 18.08 Ю 1 14 км 1/0
[]
+24.2 +22.0 88 +31 +40 очень
душно
1007.3 994.3 +19.2
03 18.08 30 км н/о +27.3 +19.3 62 +33 +39 очень
душно
1007.5 994.5
06 18.08 З 2 40 км 5/0
[]
+28.5 +17.9 53 +33 +42 очень
душно
1006.7 993.8
09 18.08 З 3 30 км 1/0
[]
+27.5 +18.4 58 +32 +33 очень
душно
1006.2 993.3
12 18.08 23 км 6/0
[]
+23.6 +20.9 85 1008.4 995.3 +29.2
15 18.08 С 1 18 км 4/0
[]
+20.7 +19.8 95 +26 +26 душно 1009.3 996.0
18 18.08 В 1 29 км 4/0
[]
+19.7 +18.0 90 +23 +23 комфорт 1009.9 996.6
21 18.08 СЗ 1 5000 м 5/0
[]
+18.3 +17.9 98 +20 +20 1010.6 997.2
00 19.08 С 1 21 км 8/0
[]
+23.5 +20.2 82 +29 +35 душно 1010.8 997.7 +18.3
03 19.08 В 1 25 км 8/0
[]
+27.4 +20.9 68 +34 +47 очень
душно
1010.6 997.6
06 19.08 В 1 35 км ясно +29.5 +19.5 55 +35 +50 очень
душно
1009.2 996.3
09 19.08 СЗ 1 30 км 1/1 2000 м
[]
+28.3 +20.5 63 +35 +36 очень
душно
1008.9 996.0
12 19.08 В 1 27 км ясно +24.0 +20.7 82 +30 +30 очень
душно
1010.2 997.1 +30.1
15 19.08 СВ 1 16 км ясно +21.2 +20.0 93 +26 +26 душно 1011.1 997.8
18 19.08 С 1 1200 м 1/1 1500 м
[]
+21.0 +20.1 95 +27 +27 душно 1011.4 998.1
21 19.08 СВ 1 4400 м ясно +20.5 +19.4 93 +26 +26 душно 1011.6 998.2
00 20.08 штиль 0 24 км ясно +25.1 +20.3 75 +31 +41 очень
душно
1011.5 998.3 +20.0
03 20.08 В 1 24 км 3/1 1000 м
[]
+29.2 +21.6 64 +37 +54 опасность
солнечного
удара
1010.8 997.9
06 20.08 ЮВ 2 22 км 5/5 1500 м
[]
+30.5 +20.7 56 +38 +46 очень
душно
1009.0 996.1
09 20.08 ЮВ 2 19 км 3/1 2000 м
[]
+29.6 +20.7 59 +37 +38 очень
душно
1008.4 995.6
12 20.08 СВ 1 13 км 8/0
[]
+24.7 +21.8 84 +32 +32 очень
душно
1009.1 996.1 +31.6
15 20.08 С 2 9000 м 3/0
[]
+23.1 +21.5 91 +31 +31 очень
душно
1009.5 996.3
18 20.08 С 2 3500 м 5/0
[]
+22.2 +21.1 93 +29 +29 очень
душно
1009.0 995.8
21 20.08 штиль 0 4700 м 10/6
[]
+22.3 +20.9 92 +29 +29 очень
душно
1009.0 995.8
00 21.08 Ю 1 19 км 8/8 600 м
[]
+25.1 +20.7 77 +31 +33 очень
душно
1009.7 996.6 +22.0
03 21.08 Ю 1 16 км 10/3 600 м
[]
+27.1 +21.8 73 +35 +42 очень
душно
1009.2 996.2
06 21.08 СЗ 1 11 км 9/9 600 м
[]
+28.2 +22.4 71 +37 +38 очень
душно
1008.0 995.1
09 21.08 С 1 1200 м 10/5 600 м
[]
+24.1 +23.5 96 +32 +33 очень
душно
1008.2 995.1
12 21.08 С 1 2800 м ?/? +23.1 +22.5 96 +32 +32 очень
душно
1008.7 995.6 +28.6 0.5
15 21.08 С 1 2300 м 8/8
[]
+21.6 +21.4 99 +28 +28 очень
душно
1009.0 995.7
18 21.08 С 1 1900 м 8/8 1500 м
[]
+20.8 +20.6 99 +27 +27 душно 1007.8 994.5
21 21.08 С 1 1500 м 8/6
[]
+20.3 +20.2 99 +25 +25 комфорт 1007.5 994.2
00 22.08 штиль 0 3700 м 8/8 100 м
[]
+23.7 +21.9 90 +31 +36 очень
душно
1007.1 994.0 +20.2 0.0
03 22.08 С 1 13 км 6/1 600 м
[]
+28.2 +21.9 69 +36 +50 очень
душно
1006.1 993.2
06 22.08 З 3 23 км 6/6 1000 м
[]
+29.1 +20.8 61 +36 +40 очень
душно
1005.1 992.3

 

Местоположение метеостанции Тондучхон (Корея): широта 37.90 долгота 127.06 высота над уровнем моря 112 м.

В архиве по умолчанию представлена погода в Тондучхоне за последнюю неделю. Архивные данные за месяц целиком и за предыдущие месяцы, начиная с января 2011 года, Вы можете получить, выбрав интересующий диапазон дат из раскрывающегося списка и нажав кнопку "Ввод!".


*Определитесь, кто Вы:
робот инопланетянин человек

Внимание! Время в таблицах - всемирное. Для получения местного времени необходимо прибавить поправку, которая равна 9 ч.

Смотрите также архив погоды в соседних городах и на ближайших метеорологических станциях:

Погода в Мунсане (Корея) (26 км)
Погода в Букчунчеоне (Корея) (35 км)
Погода в Чхорвоне (Корея) (35 км)
Погода в Сеуле (Корея) (38 км)
Погода в Кэсоне (КНДР) (45 км)
Погода в Чунчоне (Корея) (57 км)
Погода в Чхунчхоне (Корея) (59 км)
Погода в Пхенганге (КНДР) (61 км)
Погода в Инчхоне (Корея) (61 км)
Погода в Сувоне (Корея) (70 км)

Пояснения к столбцам:

Ветер - указаны скорость ветра в м/с - средняя за 10 мин, порывы в срок и между сроками (в фигурных скобках) и направление, откуда дует ветер: С - северный, СВ - северо-восточный, В - восточный, ЮВ - юго-восточный, Ю - южный, ЮЗ - юго-западный, З - западный, СЗ - северо-западный.
Видимость - горизонтальная дальность видимости в метрах или километрах. При видимости от 1 до 10 км при отсутствии осадков обычно наблюдается дымка, при ухудшении видимости до 1 км и менее - туман. В сухую погоду видимость может ухудшаться дымом, пылью или мглою.
Явления - указаны атмосферные явления, наблюдавшиеся в срок или в последний час перед сроком; фигурными скобками обозначены явления, наблюдавшиеся между сроками (за 1-3 часа до срока); квадратными скобками обозначены град или гололедные отложения с указанием их диаметра в мм.
Облачность - указаны через наклонную черту общая и нижняя облачность в баллах и высота нижней границы облаков в метрах; квадратными скобками обозначены формы облаков: Ci - перистые, Cs - перисто-слоистые, Cc - перисто-кучевые, Ac - высококучевые, As - высокослоистые, Sc - слоисто-кучевые, Ns - слоисто-дождевые, Cu - кучевые, Cb - кучево-дождевые. Подробнее классификацию облаков см. в Атласе облаков (PDF).
T - Температура воздуха - температура, измеренная на высоте 2 м над землей.
Td - Температура точки росы - температура, при понижении до которой содержащийся в воздухе водяной пар достигнет насыщения.
f - Относительная влажность воздуха - влажноcть воздуха, измеренная на высоте 2 м над землей.
Te - Эффективная температура - температура, которую ощущает одетый по сезону человек в тени. Характеристика душности погоды. При расчете учитывается влияние влажности воздуха и скорости ветра на теплоощущения человека.
Tes - Эффективная температура на солнце - температура, которую ощущает человек, с поправкой на солнечный нагрев. Характеристика знойности погоды. Зависит от высоты солнца над горизонтом, облачности и скорости ветра. Ночью, в пасмурную погоду, а также при ветре 12 м/с и более поправка равна нулю.
P - Атмосферное давление - приведенное к уровню моря атмосферное давление.
Po - Атмосферное давление - измеренное на уровне метеостанции атмосферное давление.
Tmin - Минимальная температура - минимум температуры воздуха на высоте 2 м над землей.
Tmax - Максимальная температура - максимум температуры воздуха на высоте 2 м над землей.
R - Количество осадков - Количество выпавших осадков за период времени, мм. При наведении курсора мыши на число - период времени, за который выпало указанное количество осадков.
R24 - Количество осадков - Количество выпавших осадков за 24 часа, мм.
S - Снежный покров - Высота снежного покрова, см. При наведении курсора мыши на число - состояние снежного покрова и степень покрытия местности в баллах.